Volver al catálogo

CZ-2D R/B

ActivoSSO
NORAD 43486·ROCKET BODY·🇨🇳 China

Lanzado Jun 2, 2018 desde Jiuquan Satellite Launch Center

Loading…

Próximos Pases (próximas 24 horas)

TLE

ActualizadoSource: Space-Track

Época: Sep 14, 2026, 12:20 UTC

1 43486U 18048C   26257.51396779  .00002209  00000-0  20135-3 0  9992
2 43486  97.5714 284.2847 0009844 212.9945 147.0664 14.96093170448512

Sigue CZ-2D R/B en tiempo real con AllMySat

Download on the App Store